Yoder, IN

5:42 AM EST on February 22, 2017 (GMT -0500)
Fort Wayne International

Weather History for KFWA - March, 2014

Change the Weather History Date:

Monday, March 17, 2014

  Actual Average Record
Temperature  
Mean Temperature 23 °F 39 °F  
Max Temperature 34 °F 49 °F 76 °F (2012)
Min Temperature 12 °F 29 °F -4 °F (1900)
Degree Days  
Heating Degree Days 42 26  
Month to date heating degree days 668 499  
Since 1 July heating degree days 5921 5097  
Cooling Degree Days 0 0  
Month to date cooling degree days 0 0  
Year to date cooling degree days 0 0  
Moisture  
Dew Point 14 °F    
Average Humidity 68    
Maximum Humidity 81    
Minimum Humidity 54    
Precipitation  
Precipitation 0.00 in 0.09 in 1.05 in (1980)
Month to date precipitation 1.37 1.36  
Year to date precipitation 7.45 5.66  
Snow  
Snow 0.00 in 0.10 in 9.50 in (1973)
Month to date snowfall 11.8 2.8  
Since 1 July snowfall 72.2 31.2  
Snow Depth T in    
Sea Level Pressure  
Sea Level Pressure 30.00 in    
Wind  
Wind Speed 12 mph (ENE)    
Max Wind Speed 20 mph    
Max Gust Speed 24 mph    
Visibility 10 miles    
Events      
T = Trace of Precipitation, MM = Missing Value Source: NWS Daily Summary

Daily Weather History Graph

Daily Weather History Graph

Search for Another Location

Airport or City:

Trip Planner

Search our weather history database for the weather conditions in past years. The results will help you decide how hot, cold, wet, or windy it might be!

Date:

Astronomy

Mar. 17, 2014 Rise Set
Actual Time 7:49 AM EDT 7:49 PM EDT
Civil Twilight 7:21 AM EDT 8:17 PM EDT
Nautical Twilight 6:49 AM EDT 8:49 PM EDT
Astronomical Twilight 6:17 AM EDT 9:21 PM EDT
Moon 9:06 PM EDT (3/17) 8:03 AM EDT (3/17)
Length of Visible Light 12h 55m
Length of Day
12h 00m
Full, 99% of the Moon is Illuminated
Mar 17
Full
Mar 23
Last Quarter
Mar 30
New
Apr 7
First Quarter
Apr 15
Full

Hourly Weather History & Observations

Time (EDT) Temp. Windchill Dew Point Humidity Pressure Visibility Wind Dir Wind Speed Gust Speed Precip Events Conditions
12:54 AM 16.0 °F 1.1 °F 9.0 °F 74% 30.14 in 10.0 mi NE 15.0 mph - N/A   Partly Cloudy
1:54 AM 16.0 °F 0.6 °F 8.1 °F 71% 30.12 in 10.0 mi ENE 16.1 mph - N/A   Clear
2:54 AM 15.1 °F 1.1 °F 8.1 °F 74% 30.12 in 10.0 mi NE 12.7 mph - N/A   Partly Cloudy
3:54 AM 14.0 °F -0.2 °F 7.0 °F 74% 30.09 in 10.0 mi NE 12.7 mph - N/A   Partly Cloudy
4:54 AM 12.9 °F -0.9 °F 7.0 °F 77% 30.08 in 10.0 mi NE 11.5 mph - N/A   Partly Cloudy
5:54 AM 12.0 °F -2.0 °F 7.0 °F 80% 30.05 in 10.0 mi ENE 11.5 mph - N/A   Partly Cloudy
6:54 AM 12.0 °F -2.0 °F 7.0 °F 80% 30.06 in 10.0 mi NE 11.5 mph - N/A   Partly Cloudy
7:54 AM 12.0 °F -2.7 °F 7.0 °F 80% 30.05 in 10.0 mi ENE 12.7 mph - N/A   Partly Cloudy
8:54 AM 14.0 °F -0.2 °F 9.0 °F 80% 30.04 in 10.0 mi ENE 12.7 mph - N/A   Partly Cloudy
9:54 AM 18.0 °F 2.6 °F 10.0 °F 71% 30.04 in 10.0 mi ENE 17.3 mph - N/A   Scattered Clouds
10:54 AM 21.9 °F 7.3 °F 10.9 °F 63% 30.02 in 10.0 mi East 18.4 mph - N/A   Scattered Clouds
11:54 AM 25.0 °F 12.2 °F 12.9 °F 60% 30.02 in 10.0 mi East 16.1 mph - N/A   Mostly Cloudy
12:54 PM 28.0 °F 18.1 °F 15.1 °F 58% 30.00 in 10.0 mi East 11.5 mph 19.6 mph N/A   Scattered Clouds
1:54 PM 28.9 °F 18.6 °F 16.0 °F 58% 29.96 in 10.0 mi ENE 12.7 mph - N/A   Mostly Cloudy
2:54 PM 32.0 °F 23.6 °F 18.0 °F 56% 29.94 in 10.0 mi East 10.4 mph - N/A   Scattered Clouds
3:54 PM 33.1 °F 24.9 °F 19.9 °F 59% 29.92 in 10.0 mi East 10.4 mph - N/A   Scattered Clouds
4:54 PM 33.1 °F 24.9 °F 19.9 °F 59% 29.91 in 10.0 mi East 10.4 mph - N/A   Partly Cloudy
5:54 PM 34.0 °F 26.6 °F 21.9 °F 61% 29.91 in 10.0 mi ENE 9.2 mph - N/A   Partly Cloudy
6:54 PM 33.1 °F 24.4 °F 21.9 °F 64% 29.91 in 10.0 mi ENE 11.5 mph - N/A   Partly Cloudy
7:54 PM 30.0 °F 21.1 °F 21.9 °F 72% 29.92 in 10.0 mi ENE 10.4 mph - N/A   Scattered Clouds
8:54 PM 28.0 °F 19.3 °F 21.9 °F 78% 29.93 in 10.0 mi ENE 9.2 mph - N/A   Scattered Clouds
9:54 PM 28.0 °F 19.3 °F 23.0 °F 81% 29.94 in 10.0 mi East 9.2 mph - N/A   Partly Cloudy
10:54 PM 28.0 °F 18.1 °F 21.9 °F 78% 29.94 in 10.0 mi East 11.5 mph - N/A   Clear
11:54 PM 26.1 °F 17.6 °F 21.9 °F 84% 29.95 in 10.0 mi East 8.1 mph - N/A   Partly Cloudy